Location: Peterborough
(44.3091°N, 78.3197°W)
Time: 01:22:09
(UTC-04:00)

Vanguard 1 Rocket - Pass Details

Date: 22 March 2023
Orbit: 655 x 4220 km, 34.3° (Epoch: 02 June)

Event Time Altitude Azimuth Distance (km) Brightness Sun altitude
Rises 00:57:47 0° 236° (WSW) 8,156 12.1 -44.9°
Enters shadow 01:03:51 - 232° (SW) 6,855 11.6 -45.0°
Exits shadow 01:34:44 - 94° (E) 4,347 10.9 -45.0°
Sets 01:35:20 0° 92° (E) 4,509 11.0 -45.0°
